EW0415 Weather Reports


time (UTC)temp
C
wind
direction
speed
KPH
gust
KPH
rain 1hr
cm
rain 24hr
cm
rain mn
cm
humidity
%
barometer
mb
20260831214559 15 343 3.2 12.9 0.00 0.00 0.00 60 1020.2
20260831214019 15 360 3.2 12.9 0.00 0.00 0.00 60 1020.0
20260831213520 15 355 3.2 12.9 0.00 0.00 0.00 60 1020.1
20260831213033 15 355 4.8 12.9 0.00 0.00 0.00 61 1020.0
20260831212519 15 349 3.2 12.9 0.00 0.00 0.00 61 1020.2
20260831212016 15 345 3.2 12.9 0.00 0.00 0.00 61 1020.1
20260831211534 14 347 4.8 12.9 0.00 0.00 0.00 61 1020.0
20260831211018 14 9 3.2 11.3 0.00 0.00 0.00 61 1020.0
20260831210515 14 5 3.2 11.3 0.00 0.00 0.00 61 1020.1
20260831210031 14 9 3.2 11.3 0.00 0.00 0.00 61 1020.1
20260831205515 14 360 3.2 11.3 0.00 0.00 0.00 62 1020.1
20260831205021 14 355 3.2 11.3 0.00 0.00 0.00 62 1020.1
20260831204533 14 9 1.6 8.0 0.00 0.00 0.00 62 1020.2
20260831204018 14 360 1.6 12.9 0.00 0.00 0.00 62 1020.3
20260831203519 14 0 3.2 12.9 0.00 0.00 0.00 62 1020.3
20260831203031 14 355 1.6 8.0 0.00 0.00 0.00 62 1020.3
20260831202518 14 360 3.2 8.0 0.00 0.00 0.00 61 1020.3
20260831202022 14 360 1.6 8.0 0.00 0.00 0.00 61 1020.3
20260831201537 14 360 1.6 6.4 0.00 0.00 0.00 61 1020.3
20260831201016 14 360 1.6 6.4 0.00 0.00 0.00 61 1020.4
20260831200517 14 360 1.6 8.0 0.00 0.00 0.00 61 1020.4
20260831200041 14 360 1.6 8.0 0.00 0.00 0.00 60 1020.5
20260831195519 14 355 1.6 8.0 0.00 0.00 0.00 60 1020.5
20260831195019 15 355 3.2 9.7 0.00 0.00 0.00 60 1020.5
20260831194534 15 355 4.8 12.9 0.00 0.00 0.00 60 1020.6
20260831194017 15 9 3.2 12.9 0.00 0.00 0.00 60 1020.5
20260831193518 15 9 3.2 14.5 0.00 0.00 0.00 60 1020.5
20260831193036 15 355 3.2 14.5 0.00 0.00 0.00 60 1020.6
20260831192515 14 355 3.2 12.9 0.00 0.00 0.00 60 1020.6
20260831192017 15 352 3.2 8.0 0.00 0.00 0.00 60 1020.6
20260831191535 15 348 3.2 9.7 0.00 0.00 0.00 60 1020.7
20260831191019 15 348 4.8 12.9 0.00 0.00 0.00 59 1020.6
20260831190519 15 342 3.2 12.9 0.00 0.00 0.00 59 1020.7
20260831190053 15 340 3.2 12.9 0.00 0.00 0.00 59 1020.7
20260831185516 15 334 1.6 16.1 0.00 0.00 0.00 59 1020.9
20260831185016 15 340 3.2 16.1 0.00 0.00 0.00 59 1020.9
20260831184532 15 333 4.8 16.1 0.00 0.00 0.00 58 1020.9
20260831184015 15 346 3.2 16.1 0.00 0.00 0.00 58 1020.9
20260831183515 15 15 3.2 16.1 0.00 0.00 0.00 58 1021.0
20260831183049 15 350 6.4 12.9 0.00 0.00 0.00 58 1021.2
20260831182522 15 343 3.2 12.9 0.00 0.00 0.00 58 1021.3
20260831182019 15 9 4.8 11.3 0.00 0.00 0.00 58 1021.5
20260831181535 15 9 3.2 12.9 0.00 0.00 0.00 58 1021.5
20260831181017 15 355 3.2 12.9 0.00 0.00 0.00 58 1021.6
20260831180517 15 352 4.8 12.9 0.00 0.00 0.00 57 1021.6
20260831180035 15 355 3.2 12.9 0.00 0.00 0.00 57 1021.7
20260831175517 15 13 6.4 12.9 0.00 0.00 0.00 57 1021.7
20260831175017 15 9 3.2 14.5 0.00 0.00 0.00 57 1021.6
20260831174531 15 11 4.8 14.5 0.00 0.00 0.00 57 1021.8
20260831174018 15 17 3.2 12.9 0.00 0.00 0.00 57 1021.8
20260831173515 15 9 4.8 12.9 0.00 0.00 0.00 57 1021.9
20260831173034 15 352 3.2 12.9 0.00 0.00 0.00 56 1022.0
20260831172520 15 348 4.8 11.3 0.00 0.00 0.00 56 1022.1
20260831172019 15 344 3.2 16.1 0.00 0.00 0.00 56 1022.2
20260831171537 15 23 3.2 16.1 0.00 0.00 0.00 56 1022.2
20260831171020 15 5 4.8 12.9 0.00 0.00 0.00 56 1022.3
20260831170517 15 0 3.2 12.9 0.00 0.00 0.00 56 1022.2
20260831170035 15 9 3.2 14.5 0.00 0.00 0.00 56 1022.5
20260831165515 15 11 3.2 14.5 0.00 0.00 0.00 56 1022.3
20260831165015 15 12 3.2 12.9 0.00 0.00 0.00 56 1022.3
20260831164533 15 14 4.8 12.9 0.00 0.00 0.00 56 1022.6
20260831164020 15 21 3.2 12.9 0.00 0.00 0.00 57 1022.6
20260831163521 15 24 1.6 8.0 0.00 0.00 0.00 57 1022.6
20260831163041 15 24 1.6 12.9 0.00 0.00 0.00 57 1022.5
20260831162519 15 26 3.2 12.9 0.00 0.00 0.00 58 1022.5
20260831162019 15 28 1.6 12.9 0.00 0.00 0.00 58 1022.8
20260831161535 15 36 1.6 8.0 0.00 0.00 0.00 58 1022.8
20260831161017 15 36 1.6 9.7 0.00 0.00 0.00 58 1022.9
20260831160516 15 37 3.2 9.7 0.00 0.00 0.00 58 1023.0
20260831160043 15 38 3.2 8.0 0.00 0.00 0.00 58 1023.1
20260831155519 15 0 0.0 6.4 0.00 0.00 0.00 58 1023.2
20260831155019 15 38 1.6 6.4 0.00 0.00 0.00 58 1023.2
20260831154612 15 38 1.6 6.4 0.00 0.00 0.00 58 1023.3
20260831154015 15 38 1.6 6.4 0.00 0.00 0.00 58 1023.4
20260831153516 15 38 1.6 4.8 0.00 0.00 0.00 58 1023.5
20260831153034 15 38 0.0 9.7 0.00 0.00 0.00 58 1023.6
20260831152521 15 38 1.6 9.7 0.00 0.00 0.00 58 1023.7
20260831152015 15 38 1.6 9.7 0.00 0.00 0.00 59 1023.7
20260831151537 14 44 1.6 6.4 0.00 0.00 0.00 59 1023.7
20260831151018 14 44 1.6 6.4 0.00 0.00 0.00 59 1023.6
20260831150521 14 44 1.6 6.4 0.00 0.00 0.00 60 1023.7
20260831150033 13 44 1.6 6.4 0.00 0.00 0.00 60 1023.9
20260831145520 13 0 1.6 8.0 0.00 0.00 0.00 61 1023.9
20260831145018 13 0 1.6 8.0 0.00 0.00 0.00 62 1023.9
20260831144533 13 46 1.6 6.4 0.00 0.00 0.00 63 1024.0
20260831144016 13 0 0.0 4.8 0.00 0.00 0.00 63 1024.0
20260831143516 12 46 0.0 3.2 0.00 0.00 0.00 63 1024.1
20260831143032 12 46 0.0 4.8 0.00 0.00 0.00 64 1024.3
20260831142517 12 0 0.0 4.8 0.00 0.00 0.00 64 1024.2
20260831142021 12 46 1.6 4.8 0.00 0.00 0.00 64 1024.3
20260831141535 12 46 0.0 4.8 0.00 0.00 0.00 63 1024.5
20260831141015 12 46 0.0 4.8 0.00 0.00 0.00 63 1024.4
20260831140519 12 0 0.0 3.2 0.00 0.00 0.00 62 1024.5
20260831140039 12 0 0.0 0.0 0.00 0.00 0.00 61 1024.7
20260831135516 12 0 0.0 0.0 0.00 0.00 0.00 60 1024.7
20260831135023 12 0 0.0 0.0 0.00 0.00 0.00 59 1024.8
20260831134533 13 0 0.0 0.0 0.00 0.00 0.00 59 1024.8
20260831134016 13 0 0.0 0.0 0.00 0.00 0.00 58 1025.1
20260831133518 13 0 0.0 0.0 0.00 0.00 0.00 57 1025.2
20260831133035 13 0 0.0 0.0 0.00 0.00 0.00 57 1025.3
20260831132515 14 0 0.0 0.0 0.00 0.00 0.00 56 1025.5
20260831132016 14 0 0.0 0.0 0.00 0.00 0.00 55 1025.5
20260831131541 14 0 0.0 0.0 0.00 0.00 0.00 55 1025.5
20260831131020 15 0 0.0 0.0 0.00 0.00 0.00 54 1025.6
20260831130519 15 0 0.0 3.2 0.00 0.00 0.00 55 1025.5
20260831130038 15 0 0.0 3.2 0.00 0.00 0.00 55 1025.5
20260831125520 15 46 0.0 3.2 0.00 0.00 0.00 55 1025.5
20260831125019 15 0 0.0 3.2 0.00 0.00 0.00 54 1025.4
20260831124544 15 0 0.0 4.8 0.00 0.00 0.00 54 1025.4
20260831124018 15 46 0.0 4.8 0.00 0.00 0.00 54 1025.5
20260831123518 15 46 1.6 6.4 0.00 0.00 0.00 54 1025.6
20260831123034 15 46 1.6 6.4 0.00 0.00 0.00 54 1025.7
20260831122518 15 46 3.2 6.4 0.00 0.00 0.00 54 1025.7
20260831122017 15 0 0.0 6.4 0.00 0.00 0.00 54 1025.6
20260831121535 15 46 1.6 6.4 0.00 0.00 0.00 54 1025.5
20260831121019 16 0 1.6 9.7 0.00 0.00 0.00 54 1025.4
20260831120519 16 0 1.6 9.7 0.00 0.00 0.00 54 1025.3
20260831120051 16 46 1.6 9.7 0.00 0.00 0.00 54 1025.5
20260831115524 16 49 1.6 8.0 0.00 0.00 0.00 54 1025.6
20260831115016 16 0 1.6 8.0 0.00 0.00 0.00 53 1025.6
20260831114534 16 50 3.2 9.7 0.00 0.00 0.00 53 1025.5
20260831114018 16 90 1.6 9.7 0.00 0.00 0.00 53 1025.5
20260831113516 16 88 3.2 9.7 0.00 0.00 0.00 53 1025.4
20260831113032 16 92 1.6 9.7 0.00 0.00 0.00 53 1025.3
20260831112515 16 92 1.6 11.3 0.00 0.00 0.00 53 1025.5
20260831112014 16 94 1.6 11.3 0.00 0.00 0.00 53 1025.6
20260831111535 16 92 1.6 11.3 0.00 0.00 0.00 53 1025.6
20260831111018 16 95 3.2 9.7 0.00 0.00 0.00 53 1025.6
20260831110518 16 96 1.6 9.7 0.00 0.00 0.00 53 1025.7
20260831110035 16 97 1.6 9.7 0.00 0.00 0.00 53 1025.8
20260831105518 16 96 1.6 11.3 0.00 0.00 0.00 53 1025.6
20260831105016 16 96 1.6 11.3 0.00 0.00 0.00 53 1025.9
20260831104531 16 0 1.6 9.7 0.00 0.00 0.00 53 1025.8
20260831104016 16 98 1.6 6.4 0.00 0.00 0.00 53 1025.9
20260831103517 16 97 0.0 4.8 0.00 0.00 0.00 53 1025.9
20260831103032 16 0 0.0 4.8 0.00 0.00 0.00 53 1025.9
20260831102520 16 93 0.0 6.4 0.00 0.00 0.00 53 1025.8
20260831102017 16 0 0.0 6.4 0.00 0.00 0.00 53 1026.0
20260831101533 16 95 1.6 6.4 0.00 0.00 0.00 53 1025.9
20260831101018 16 96 0.0 6.4 0.00 0.00 0.00 53 1026.1
20260831100522 17 91 3.2 6.4 0.00 0.00 0.00 53 1026.0
20260831100038 17 93 1.6 6.4 0.00 0.00 0.00 53 1026.2
20260831095516 17 94 0.0 6.4 0.00 0.00 0.00 53 1026.2
20260831095018 17 94 1.6 6.4 0.00 0.00 0.00 52 1026.4
20260831094539 17 0 0.0 3.2 0.00 0.00 0.00 52 1026.3
20260831094018 17 0 0.0 6.4 0.00 0.00 0.00 51 1026.4
20260831093518 17 96 0.0 6.4 0.00 0.00 0.00 51 1026.4
20260831093033 17 96 1.6 6.4 0.00 0.00 0.00 51 1026.2
20260831092519 17 96 1.6 4.8 0.00 0.00 0.00 50 1026.1
20260831092018 17 98 0.0 3.2 0.00 0.00 0.00 50 1026.2
20260831091543 17 0 0.0 0.0 0.00 0.00 0.00 49 1026.3
20260831091021 18 0 0.0 0.0 0.00 0.00 0.00 49 1026.1
20260831090519 18 0 0.0 0.0 0.00 0.00 0.00 48 1026.1
20260831090039 18 0 0.0 0.0 0.00 0.00 0.00 49 1026.2
20260831085521 18 0 0.0 0.0 0.00 0.00 0.00 48 1026.2
20260831085015 18 0 0.0 0.0 0.00 0.00 0.00 48 1026.3
20260831084535 19 0 0.0 0.0 0.00 0.00 0.00 48 1026.2
20260831084019 19 0 0.0 0.0 0.00 0.00 0.00 47 1026.2
20260831083520 20 0 0.0 0.0 0.00 0.00 0.00 47 1026.2
20260831083038 20 0 0.0 0.0 0.00 0.00 0.00 47 1026.3
20260831082516 20 0 0.0 3.2 0.00 0.00 0.00 46 1026.3
20260831082016 20 0 0.0 4.8 0.00 0.00 0.00 46 1026.3
20260831081534 20 0 0.0 4.8 0.00 0.00 0.00 45 1026.2
20260831081018 20 62 0.0 4.8 0.00 0.00 0.00 45 1026.3
20260831080516 21 61 0.0 8.0 0.00 0.00 0.00 44 1026.2
20260831080040 21 63 1.6 8.0 0.00 0.00 0.00 44 1026.3
20260831075520 21 75 3.2 6.4 0.00 0.00 0.00 44 1026.2
20260831075020 21 68 1.6 11.3 0.00 0.00 0.00 43 1026.1
20260831074536 21 67 3.2 11.3 0.00 0.00 0.00 43 1026.1
20260831074019 21 69 3.2 8.0 0.00 0.00 0.00 42 1026.0
20260831073517 21 70 3.2 8.0 0.00 0.00 0.00 42 1026.1
20260831073038 22 82 3.2 6.4 0.00 0.00 0.00 42 1026.2
20260831072516 22 83 1.6 12.9 0.00 0.00 0.00 42 1026.2
20260831072017 22 85 3.2 16.1 0.00 0.00 0.00 42 1026.2
20260831071542 22 44 4.8 16.1 0.00 0.00 0.00 42 1026.1
20260831071016 22 336 1.6 8.0 0.00 0.00 0.00 42 1026.2
20260831070519 22 355 1.6 8.0 0.00 0.00 0.00 42 1026.2
20260831070035 22 352 1.6 9.7 0.00 0.00 0.00 42 1026.4
20260831065520 22 355 3.2 9.7 0.00 0.00 0.00 40 1026.2
20260831065019 22 355 3.2 12.9 0.00 0.00 0.00 40 1026.5
20260831064531 22 350 3.2 12.9 0.00 0.00 0.00 42 1026.5
20260831064018 22 350 3.2 12.9 0.00 0.00 0.00 41 1026.6
20260831063518 22 350 4.8 12.9 0.00 0.00 0.00 41 1026.8
20260831063034 22 339 4.8 9.7 0.00 0.00 0.00 41 1026.8
20260831062518 22 336 4.8 9.7 0.00 0.00 0.00 41 1027.0
20260831062022 23 315 1.6 9.7 0.00 0.00 0.00 41 1027.0
20260831061535 23 346 4.8 12.9 0.00 0.00 0.00 41 1027.0
20260831061019 23 60 3.2 12.9 0.00 0.00 0.00 40 1027.2
20260831060517 23 57 4.8 16.1 0.00 0.00 0.00 37 1027.2
20260831060040 23 101 4.8 16.1 0.00 0.00 0.00 38 1027.1
20260831055521 23 53 4.8 16.1 0.00 0.00 0.00 36 1027.2
20260831055018 23 28 3.2 12.9 0.00 0.00 0.00 37 1027.2
20260831054535 23 348 4.8 12.9 0.00 0.00 0.00 37 1027.2
20260831054023 23 28 4.8 17.7 0.00 0.00 0.00 38 1027.3
20260831053516 23 351 3.2 17.7 0.00 0.00 0.00 38 1027.2
20260831053034 23 92 4.8 14.5 0.00 0.00 0.00 38 1027.3
20260831052521 23 150 4.8 14.5 0.00 0.00 0.00 37 1027.3
20260831052018 23 33 4.8 14.5 0.00 0.00 0.00 39 1027.4
20260831051550 23 38 4.8 11.3 0.00 0.00 0.00 39 1027.6
20260831051016 23 30 4.8 14.5 0.00 0.00 0.00 38 1027.5
20260831050519 23 63 4.8 14.5 0.00 0.00 0.00 37 1027.7
20260831050036 23 32 3.2 16.1 0.00 0.00 0.00 37 1027.8
20260831045519 23 355 4.8 16.1 0.00 0.00 0.00 37 1027.8
20260831045019 23 79 3.2 17.7 0.00 0.00 0.00 37 1027.8
20260831044537 23 85 6.4 17.7 0.00 0.00 0.00 36 1027.9
20260831044016 23 29 3.2 9.7 0.00 0.00 0.00 37 1027.9
20260831043518 23 27 3.2 12.9 0.00 0.00 0.00 37 1027.9
20260831043034 23 28 3.2 12.9 0.00 0.00 0.00 35 1028.1
20260831042519 23 29 6.4 14.5 0.00 0.00 0.00 35 1028.3
20260831042017 23 28 4.8 14.5 0.00 0.00 0.00 36 1028.4
20260831041534 23 22 4.8 16.1 0.00 0.00 0.00 36 1028.4
20260831041019 23 355 4.8 16.1 0.00 0.00 0.00 37 1028.3
20260831040518 23 360 6.4 16.1 0.00 0.00 0.00 37 1028.4
20260831040037 23 335 3.2 14.5 0.00 0.00 0.00 38 1028.5
20260831035520 23 339 4.8 14.5 0.00 0.00 0.00 39 1028.5
20260831035020 23 340 4.8 14.5 0.00 0.00 0.00 38 1028.6
20260831034542 23 341 3.2 14.5 0.00 0.00 0.00 37 1029.0
20260831034019 23 334 3.2 12.9 0.00 0.00 0.00 38 1029.0
20260831033518 23 338 3.2 12.9 0.00 0.00 0.00 40 1029.1
20260831033035 23 340 4.8 14.5 0.00 0.00 0.00 39 1029.2
20260831032516 23 338 3.2 14.5 0.00 0.00 0.00 40 1029.4
20260831032016 23 333 4.8 14.5 0.00 0.00 0.00 39 1029.6
20260831031536 23 348 3.2 14.5 0.00 0.00 0.00 40 1029.6
20260831031019 22 360 3.2 14.5 0.00 0.00 0.00 41 1029.8
20260831030518 22 22 3.2 14.5 0.00 0.00 0.00 42 1029.9
20260831030035 22 26 4.8 14.5 0.00 0.00 0.00 45 1030.0
20260831025518 22 26 3.2 12.9 0.00 0.00 0.00 45 1030.1
20260831025015 22 355 3.2 12.9 0.00 0.00 0.00 46 1030.2
20260831024536 22 355 3.2 9.7 0.00 0.00 0.00 47 1030.3
20260831024020 22 355 3.2 9.7 0.00 0.00 0.00 46 1030.5
20260831023520 22 355 4.8 9.7 0.00 0.00 0.00 46 1030.6
20260831023035 22 360 3.2 16.1 0.00 0.00 0.00 46 1030.7
20260831022516 22 17 4.8 16.1 0.00 0.00 0.00 45 1030.8
20260831022016 22 30 6.4 16.1 0.00 0.00 0.00 44 1031.0
20260831021534 21 302 4.8 14.5 0.00 0.00 0.00 47 1031.0
20260831021020 21 205 3.2 8.0 0.00 0.00 0.00 50 1031.0
20260831020516 21 205 3.2 8.0 0.00 0.00 0.00 51 1031.1
20260831020035 21 195 0.0 8.0 0.00 0.00 0.00 56 1031.1
20260831015518 20 195 0.0 8.0 0.00 0.00 0.00 56 1031.1
20260831015018 20 0 0.0 6.4 0.00 0.00 0.00 58 1031.2
20260831014537 20 192 1.6 6.4 0.00 0.00 0.00 58 1031.4
20260831014020 20 192 1.6 8.0 0.00 0.00 0.00 59 1031.4
20260831013519 19 191 1.6 8.0 0.00 0.00 0.00 61 1031.5
20260831013033 19 190 1.6 4.8 0.00 0.00 0.00 62 1031.5
20260831012519 18 190 0.0 6.4 0.00 0.00 0.00 64 1031.7
20260831012018 18 190 1.6 6.4 0.00 0.00 0.00 65 1031.7
20260831011543 18 190 3.2 6.4 0.00 0.00 0.00 66 1031.7
20260831011015 18 0 0.0 4.8 0.00 0.00 0.00 68 1031.6
20260831010519 17 0 0.0 6.4 0.00 0.00 0.00 68 1031.7
20260831010042 17 184 1.6 6.4 0.00 0.00 0.00 69 1031.8
20260831005520 17 185 1.6 6.4 0.00 0.00 0.00 70 1031.7
20260831005019 17 0 0.0 4.8 0.00 0.00 0.00 71 1031.8
20260831004532 16 184 0.0 4.8 0.00 0.00 0.00 72 1031.9
20260831004023 16 184 0.0 4.8 0.00 0.00 0.00 74 1031.8
20260831003520 16 184 1.6 4.8 0.00 0.00 0.00 75 1031.9
20260831003037 15 0 1.6 4.8 0.00 0.00 0.00 77 1031.9
20260831002518 15 184 1.6 4.8 0.00 0.00 0.00 79 1031.9
20260831002018 15 184 0.0 4.8 0.00 0.00 0.00 80 1031.9
20260831001537 15 184 0.0 4.8 0.00 0.00 0.00 82 1031.9
20260831001021 14 184 1.6 4.8 0.00 0.00 0.00 83 1031.9
20260831000519 14 0 1.6 4.8 0.00 0.00 0.00 84 1031.9
20260831000034 13 190 0.0 4.8 0.00 0.00 0.00 86 1032.0
20260830235519 13 0 0.0 3.2 0.00 0.00 0.00 87 1032.1
20260830235016 13 0 0.0 1.6 0.00 0.00 0.00 88 1032.0
20260830234541 13 0 0.0 3.2 0.00 0.00 0.00 88 1032.0
20260830234016 12 0 0.0 3.2 0.00 0.00 0.00 88 1032.1
20260830233518 12 0 0.0 3.2 0.00 0.00 0.00 89 1032.1
20260830233035 12 0 0.0 3.2 0.00 0.00 0.00 89 1032.2
20260830232516 12 0 0.0 3.2 0.00 0.00 0.00 89 1032.2
20260830232018 12 0 0.0 4.8 0.00 0.00 0.00 89 1032.2
20260830231536 12 193 0.0 4.8 0.00 0.00 0.00 89 1032.3
20260830231021 11 193 0.0 3.2 0.00 0.00 0.00 89 1032.2
20260830230519 11 0 0.0 4.8 0.00 0.00 0.00 89 1032.3
20260830230033 11 0 0.0 4.8 0.00 0.00 0.00 89 1032.2
20260830225516 11 0 0.0 0.0 0.00 0.00 0.00 90 1032.3
20260830225022 10 0 0.0 0.0 0.00 0.00 0.00 89 1032.3
20260830224535 10 0 0.0 0.0 0.00 0.00 0.00 89 1032.3
20260830224019 10 0 0.0 0.0 0.00 0.00 0.00 89 1032.2
20260830223517 9 0 0.0 0.0 0.00 0.00 0.00 89 1032.2
20260830223032 9 0 0.0 0.0 0.00 0.00 0.00 89 1032.2
20260830222516 8 0 0.0 0.0 0.00 0.00 0.00 89 1032.2
20260830222015 8 0 0.0 0.0 0.00 0.00 0.00 89 1032.3
20260830221545 7 0 0.0 0.0 0.00 0.00 0.00 88 1032.3
20260830221020 7 0 0.0 0.0 0.00 0.00 0.00 88 1032.2
20260830220516 6 0 0.0 0.0 0.00 0.00 0.00 88 1032.1
20260830220035 6 0 0.0 0.0 0.00 0.00 0.00 88 1032.1
20260830215522 6 0 0.0 0.0 0.00 0.00 0.00 87 1032.0
20260830215016 6 0 0.0 0.0 0.00 0.00 0.00 87 1031.9